ACA7081 KBUF-CYYZ

Flight info

Callsign ACA7081
Flight time 0h 25m
Altitude 13000
Route LINNG LINNG3
Aircraft A319/M-SDE3FGHIRWY/LB1

Departure

Time 2026-05-06 20:21
Airport Buffalo Niagara International Airport (KBUF)

Arrival

Time 2026-05-06 20:47
Airport Toronto Pearson International Airport (CYYZ)
Time Latitude Longitude Altitude Speed Heading
2026-05-06 19:28 42.94710 -78.73571 733 ft 0 kts 206°
2026-05-06 20:14 42.94708 -78.73570 733 ft 0 kts 171°
2026-05-06 20:14 42.94700 -78.73561 733 ft 3 kts 141°
2026-05-06 20:14 42.94669 -78.73558 733 ft 6 kts 194°
2026-05-06 20:14 42.94632 -78.73521 733 ft 8 kts 117°
2026-05-06 20:15 42.94592 -78.73497 733 ft 8 kts 179°
2026-05-06 20:15 42.94521 -78.73497 733 ft 11 kts 179°
2026-05-06 20:15 42.94431 -78.73496 733 ft 14 kts 179°
2026-05-06 20:15 42.94325 -78.73493 733 ft 12 kts 178°
2026-05-06 20:16 42.94254 -78.73521 733 ft 7 kts 189°
2026-05-06 20:16 42.94204 -78.73476 733 ft 10 kts 125°
2026-05-06 20:16 42.94154 -78.73382 733 ft 13 kts 126°
2026-05-06 20:16 42.94093 -78.73270 733 ft 15 kts 127°
2026-05-06 20:17 42.94022 -78.73141 733 ft 18 kts 127°
2026-05-06 20:17 42.93946 -78.73002 733 ft 15 kts 127°
2026-05-06 20:17 42.93919 -78.72942 733 ft 5 kts 100°
2026-05-06 20:17 42.93940 -78.72884 733 ft 8 kts 43°
2026-05-06 20:18 42.93991 -78.72817 733 ft 11 kts 43°
2026-05-06 20:18 42.94057 -78.72732 733 ft 14 kts 44°
2026-05-06 20:18 42.94133 -78.72631 733 ft 16 kts 44°
2026-05-06 20:18 42.94220 -78.72517 733 ft 18 kts 43°
2026-05-06 20:19 42.94315 -78.72393 733 ft 19 kts 44°
2026-05-06 20:19 42.94417 -78.72259 733 ft 20 kts 44°
2026-05-06 20:19 42.94522 -78.72119 733 ft 21 kts 44°
2026-05-06 20:19 42.94633 -78.71974 733 ft 22 kts 43°
2026-05-06 20:20 42.94721 -78.71860 733 ft 13 kts 44°
2026-05-06 20:20 42.94774 -78.71806 733 ft 8 kts 10°
2026-05-06 20:20 42.94832 -78.71853 733 ft 11 kts 306°
2026-05-06 20:20 42.94820 -78.71939 733 ft 9 kts 221°
2026-05-06 20:21 42.94729 -78.72058 733 ft 47 kts 224°
2026-05-06 20:21 42.94238 -78.72702 762 ft 141 kts 224°
2026-05-06 20:21 42.93513 -78.73646 1722 ft 151 kts 224°
2026-05-06 20:21 42.92771 -78.74622 2854 ft 156 kts 225°
2026-05-06 20:22 42.92016 -78.75730 3607 ft 174 kts 240°
2026-05-06 20:22 42.91879 -78.77351 4563 ft 185 kts 283°
2026-05-06 20:22 42.92585 -78.78788 5600 ft 192 kts 308°
2026-05-06 20:22 42.93540 -78.80043 6575 ft 195 kts 310°
2026-05-06 20:23 42.94507 -78.81290 7500 ft 198 kts 309°
2026-05-06 20:23 42.95484 -78.82607 8495 ft 200 kts 307°
2026-05-06 20:23 42.96438 -78.83946 9446 ft 202 kts 305°
2026-05-06 20:23 42.97391 -78.85326 10360 ft 205 kts 304°
2026-05-06 20:24 42.98363 -78.86760 11254 ft 208 kts 303°
2026-05-06 20:24 42.99327 -78.88200 12077 ft 213 kts 302°
2026-05-06 20:24 43.00333 -78.89715 12650 ft 216 kts 302°
2026-05-06 20:24 43.01344 -78.91239 12946 ft 216 kts 301°
2026-05-06 20:25 43.02351 -78.92761 12988 ft 215 kts 301°
2026-05-06 20:25 43.03341 -78.94259 12996 ft 214 kts 301°
2026-05-06 20:25 43.04340 -78.95776 12998 ft 213 kts 300°
2026-05-06 20:25 43.05322 -78.97268 12999 ft 213 kts 300°
2026-05-06 20:26 43.06287 -78.98740 13000 ft 213 kts 301°
2026-05-06 20:26 43.07272 -79.00259 13009 ft 235 kts 301°
2026-05-06 20:26 43.08429 -79.02067 13011 ft 272 kts 303°
2026-05-06 20:26 43.09747 -79.04097 13005 ft 293 kts 304°
2026-05-06 20:27 43.11059 -79.06068 13004 ft 294 kts 304°
2026-05-06 20:27 43.12445 -79.08132 13007 ft 295 kts 305°
2026-05-06 20:27 43.13829 -79.10207 13009 ft 295 kts 304°
2026-05-06 20:27 43.15198 -79.12277 13011 ft 295 kts 304°
2026-05-06 20:28 43.16576 -79.14373 13014 ft 295 kts 304°
2026-05-06 20:28 43.17937 -79.16451 13016 ft 295 kts 304°
2026-05-06 20:28 43.19313 -79.18557 13019 ft 295 kts 305°
2026-05-06 20:28 43.20674 -79.20644 13021 ft 296 kts 305°
2026-05-06 20:29 43.22031 -79.22725 12961 ft 297 kts 305°
2026-05-06 20:29 43.23409 -79.24839 12705 ft 294 kts 305°
2026-05-06 20:29 43.24753 -79.26907 12457 ft 293 kts 305°
2026-05-06 20:29 43.26115 -79.29004 12207 ft 292 kts 305°
2026-05-06 20:30 43.27450 -79.31059 11971 ft 291 kts 305°
2026-05-06 20:30 43.30213 -79.35115 11520 ft 294 kts 317°
2026-05-06 20:30 43.32087 -79.36327 11322 ft 302 kts 336°
2026-05-06 20:31 43.34071 -79.37161 11150 ft 302 kts 338°
2026-05-06 20:31 43.36080 -79.37959 11040 ft 300 kts 338°
2026-05-06 20:31 43.38084 -79.38773 10848 ft 300 kts 338°
2026-05-06 20:31 43.40068 -79.39598 10566 ft 293 kts 337°
2026-05-06 20:32 43.41984 -79.40408 10268 ft 287 kts 337°
2026-05-06 20:32 43.43865 -79.41213 9974 ft 281 kts 337°
2026-05-06 20:32 43.45699 -79.42001 9743 ft 276 kts 337°
2026-05-06 20:32 43.47537 -79.42793 9539 ft 275 kts 337°
2026-05-06 20:33 43.49345 -79.43572 9328 ft 273 kts 337°
2026-05-06 20:33 43.51107 -79.44327 9012 ft 264 kts 337°
2026-05-06 20:33 43.52725 -79.45317 8616 ft 242 kts 319°
2026-05-06 20:33 43.53938 -79.46735 8345 ft 221 kts 311°
2026-05-06 20:34 43.55006 -79.48164 8113 ft 211 kts 310°
2026-05-06 20:34 43.56035 -79.49555 7996 ft 201 kts 310°
2026-05-06 20:34 43.57005 -79.50846 8003 ft 187 kts 310°
2026-05-06 20:34 43.57932 -79.52074 7997 ft 187 kts 310°
2026-05-06 20:35 43.58642 -79.53512 7997 ft 179 kts 284°
2026-05-06 20:35 43.58670 -79.55210 7995 ft 178 kts 255°
2026-05-06 20:35 43.58058 -79.56682 8002 ft 182 kts 233°
2026-05-06 20:35 43.57184 -79.57978 8019 ft 183 kts 231°
2026-05-06 20:36 43.56301 -79.59248 7804 ft 185 kts 231°
2026-05-06 20:36 43.55413 -79.60521 7553 ft 184 kts 232°
2026-05-06 20:36 43.54522 -79.61807 7300 ft 185 kts 232°
2026-05-06 20:36 43.53634 -79.63092 7050 ft 186 kts 232°
2026-05-06 20:37 43.52741 -79.64386 6800 ft 187 kts 232°
2026-05-06 20:37 43.51846 -79.65687 6550 ft 188 kts 232°
2026-05-06 20:37 43.50979 -79.66956 6309 ft 190 kts 232°
2026-05-06 20:37 43.50091 -79.68255 6063 ft 191 kts 232°
2026-05-06 20:38 43.49178 -79.69588 5813 ft 193 kts 232°
2026-05-06 20:38 43.48247 -79.70943 5562 ft 195 kts 232°
2026-05-06 20:38 43.47319 -79.72290 5310 ft 196 kts 232°
2026-05-06 20:38 43.46382 -79.73646 5061 ft 197 kts 231°
2026-05-06 20:39 43.45432 -79.75017 4809 ft 198 kts 231°
2026-05-06 20:39 43.44653 -79.76515 4546 ft 191 kts 257°
2026-05-06 20:39 43.44648 -79.78225 4292 ft 181 kts 296°
2026-05-06 20:39 43.45358 -79.79627 4132 ft 178 kts 315°
2026-05-06 20:40 43.46246 -79.80804 3930 ft 177 kts 319°
2026-05-06 20:40 43.47160 -79.81934 3729 ft 176 kts 320°
2026-05-06 20:40 43.48069 -79.83044 3530 ft 176 kts 320°
2026-05-06 20:40 43.49050 -79.84040 3320 ft 175 kts 340°
2026-05-06 20:41 43.50230 -79.84100 3127 ft 176 kts 12°
2026-05-06 20:41 43.51399 -79.83577 3033 ft 175 kts 19°
2026-05-06 20:41 43.52526 -79.82952 3026 ft 177 kts 20°
2026-05-06 20:41 43.53663 -79.82297 3023 ft 177 kts 20°
2026-05-06 20:42 43.54803 -79.81636 3023 ft 177 kts 20°
2026-05-06 20:42 43.55946 -79.80973 3023 ft 177 kts 20°
2026-05-06 20:42 43.57079 -79.80309 3022 ft 177 kts 22°
2026-05-06 20:42 43.58111 -79.79468 3028 ft 177 kts 32°
2026-05-06 20:43 43.59024 -79.78426 2933 ft 166 kts 38°
2026-05-06 20:43 43.59830 -79.77381 2720 ft 155 kts 40°
2026-05-06 20:43 43.60572 -79.76347 2531 ft 148 kts 42°
2026-05-06 20:43 43.61262 -79.75352 2323 ft 143 kts 42°
2026-05-06 20:44 43.61945 -79.74358 2140 ft 143 kts 43°
2026-05-06 20:44 43.62619 -79.73377 1943 ft 134 kts 43°
2026-05-06 20:44 43.63221 -79.72498 1753 ft 121 kts 43°
2026-05-06 20:44 43.63774 -79.71693 1589 ft 114 kts 43°
2026-05-06 20:45 43.64326 -79.70885 1510 ft 114 kts 43°
2026-05-06 20:45 43.64869 -79.70082 1361 ft 114 kts 43°
2026-05-06 20:45 43.65409 -79.69292 1191 ft 114 kts 43°
2026-05-06 20:45 43.65956 -79.68498 1033 ft 113 kts 44°
2026-05-06 20:46 43.66501 -79.67712 879 ft 113 kts 44°
2026-05-06 20:46 43.67049 -79.66933 730 ft 112 kts 43°
2026-05-06 20:46 43.67582 -79.66165 595 ft 111 kts 44°
2026-05-06 20:46 43.68073 -79.65450 555 ft 86 kts 45°
2026-05-06 20:47 43.68375 -79.65009 541 ft 41 kts 45°
2026-05-06 20:47 43.68480 -79.64860 543 ft 11 kts 41°
2026-05-06 20:47 43.68541 -79.64877 545 ft 10 kts 317°
2026-05-06 20:47 43.68595 -79.64946 547 ft 9 kts 317°
2026-05-06 20:48 43.68637 -79.64999 549 ft 8 kts 316°
2026-05-06 20:48 43.68692 -79.65030 550 ft 9 kts
2026-05-06 20:48 43.68769 -79.65025 551 ft 12 kts
2026-05-06 20:48 43.68833 -79.64961 551 ft 11 kts 50°
2026-05-06 20:49 43.68889 -79.64873 552 ft 13 kts 45°
2026-05-06 20:49 43.68944 -79.64802 553 ft 7 kts 12°
2026-05-06 20:49 43.68996 -79.64845 554 ft 10 kts 316°
2026-05-06 20:49 43.69052 -79.64918 556 ft 11 kts 316°
2026-05-06 20:50 43.69109 -79.64992 559 ft 11 kts 317°
2026-05-06 20:50 43.69173 -79.65076 560 ft 13 kts 316°
2026-05-06 20:50 43.69246 -79.65170 561 ft 14 kts 317°
2026-05-06 20:50 43.69304 -79.65245 563 ft 8 kts 309°
2026-05-06 20:51 43.69332 -79.65289 563 ft 4 kts 338°
2026-05-06 20:51 43.69339 -79.65292 563 ft 0 kts 351°